Location: Tamazert
(32.6352°N, 5.2072°W)
Time: 04:18:43
(UTC+00:00)

Vanguard 1 Rocket - Pass Details

Date: 09 October 2022
Orbit: 650 x 4225 km, 34.3° (Epoch: 05 December)

Event Time Altitude Azimuth Distance (km) Brightness Sun altitude
Rises 15:59:35 0° 220° (SW) 7,886 13.2 22.6°
Reaches altitude 10° 16:04:52 10° 216° (SW) 7,126 13.1 21.6°
Maximum altitude 16:29:37 55° 146° (SE) 4,568 11.1 16.7°
Drops below altitude 10° 16:49:23 10° 76° (ENE) 5,914 11.0 12.8°
Sets 16:53:12 0° 72° (ENE) 6,546 11.1 12.0°
